Weather History for Peru, IL

Change the Weather History Date:

Friday, December 27, 2013

  Actual Average Record
Temperature  
Mean Temperature 33 °F -  
Max Temperature 41 °F 30 °F 60 °F (2008)
Min Temperature 25 °F 13 °F -5 °F (1983)
Degree Days  
Heating Degree Days 32    
Moisture  
Dew Point 29 °F    
Average Humidity 81    
Maximum Humidity 98    
Minimum Humidity 66    
Precipitation  
Precipitation 0.00 in - - ()
Sea Level Pressure  
Sea Level Pressure 30.20 in    
Wind  
Wind Speed 8 mph (SW)    
Max Wind Speed 21 mph    
Max Gust Speed 26 mph    
Visibility 9 miles    
Events Fog    
Averages and records for this station are not official NWS values.
T = Trace of Precipitation, MM = Missing Value Source: NWS Daily Summary

Daily Weather History Graph

Daily Weather History Graph

Search for Another Location

Airport:

Trip Planner

Search our weather history database for the weather conditions in past years. The results will help you decide how hot, cold, wet, or windy it might be!

Date:

Astronomy

Dec. 27, 2013 Rise Set
Actual Time 7:21 AM CST 4:34 PM CST
Civil Twilight 6:50 AM CST 5:05 PM CST
Nautical Twilight 6:15 AM CST 5:40 PM CST
Astronomical Twilight 5:41 AM CST 6:13 PM CST
Moon 1:51 AM CST (12/27) 12:46 PM CST (12/27)
Length of Visible Light 10h 15m
Length of Day
9h 12m
Waning Crescent, 28% of the Moon is Illuminated
Dec 27
Waning Crescent
Jan 1
New
Jan 7
First Quarter
Jan 15
Full
Jan 23
Last Quarter

Hourly Weather History & Observations

Time (CST) Temp. Windchill Dew Point Humidity Pressure Visibility Wind Dir Wind Speed Gust Speed Precip Events Conditions
12:15 AM 31.5 °F 25.8 °F 28.8 °F 90% 30.22 in 10.0 mi WSW 5.8 mph - N/A   Overcast
12:35 AM 30.9 °F 25.2 °F 28.4 °F 90% 30.23 in 10.0 mi WSW 5.8 mph - N/A   Overcast
12:55 AM 31.8 °F 24.6 °F 29.1 °F 90% 30.23 in 10.0 mi WSW 8.1 mph - N/A   Overcast
1:15 AM 32.0 °F 25.6 °F 29.1 °F 89% 30.23 in 10.0 mi WSW 6.9 mph - N/A   Overcast
1:35 AM 32.0 °F 24.2 °F 28.8 °F 88% 30.23 in 10.0 mi WSW 9.2 mph - N/A   Overcast
1:55 AM 31.1 °F 24.5 °F 28.0 °F 88% 30.23 in 10.0 mi SW 6.9 mph - N/A   Overcast
2:15 AM 29.8 °F 22.2 °F 27.0 °F 89% 30.24 in 10.0 mi WSW 8.1 mph - N/A   Overcast
2:35 AM 28.4 °F 21.2 °F 25.7 °F 90% 30.24 in 10.0 mi WSW 6.9 mph - N/A   Mostly Cloudy
2:55 AM 27.7 °F 20.4 °F 25.5 °F 92% 30.24 in 10.0 mi West 6.9 mph - N/A   Clear
3:15 AM 27.3 °F 19.1 °F 25.2 °F 92% 30.24 in 10.0 mi WSW 8.1 mph - N/A   Clear
3:35 AM 27.5 °F 21.1 °F 25.7 °F 93% 30.23 in 10.0 mi WSW 5.8 mph - N/A   Scattered Clouds
3:55 AM 27.5 °F 21.1 °F 25.7 °F 93% 30.23 in 10.0 mi WSW 5.8 mph - N/A   Clear
4:15 AM 26.2 °F 20.7 °F 24.4 °F 93% 30.23 in 7.0 mi SW 4.6 mph - N/A   Clear
4:35 AM 26.6 °F 21.2 °F 25.3 °F 95% 30.24 in 7.0 mi SW 4.6 mph - N/A   Clear
4:55 AM 27.5 °F 22.2 °F 26.4 °F 96% 30.24 in 7.0 mi SW 4.6 mph - N/A   Clear
5:15 AM 27.5 °F 22.2 °F 26.2 °F 95% 30.24 in 7.0 mi SW 4.6 mph - N/A   Clear
5:35 AM 27.5 °F 22.2 °F 26.6 °F 96% 30.25 in 5.0 mi SW 4.6 mph - N/A   Clear
5:55 AM 27.0 °F 19.5 °F 25.9 °F 96% 30.25 in 2.5 mi SSW 6.9 mph - N/A   Clear
6:15 AM 26.6 °F 21.2 °F 25.7 °F 96% 30.26 in 4.0 mi SW 4.6 mph - N/A   Clear
6:35 AM 27.0 °F 21.6 °F 26.2 °F 97% 30.26 in 3.0 mi SW 4.6 mph - N/A   Clear
6:55 AM 26.6 °F 21.2 °F 25.7 °F 96% 30.27 in 3.0 mi SW 4.6 mph - N/A   Clear
7:15 AM 26.4 °F 20.9 °F 25.9 °F 98% 30.27 in 1.0 mi SSW 4.6 mph - N/A   Mist
7:35 AM 26.2 °F 19.6 °F 25.5 °F 97% 30.27 in 0.5 mi SSW 5.8 mph - N/A Fog Light Freezing Fog
7:55 AM 25.7 °F 18.0 °F 25.2 °F 98% 30.28 in 0.5 mi SW 6.9 mph - N/A Fog Light Freezing Fog
8:15 AM 25.7 °F 19.0 °F 24.8 °F 96% 30.28 in 1.0 mi SSW 5.8 mph - N/A   Mist
8:35 AM 26.6 °F 20.0 °F 25.7 °F 96% 30.28 in 3.0 mi SSW 5.8 mph - N/A   Clear
8:55 AM 28.0 °F 20.8 °F 27.1 °F 96% 30.28 in 5.0 mi SSW 6.9 mph - N/A   Clear
9:15 AM 29.3 °F 23.2 °F 28.2 °F 96% 30.28 in 7.0 mi SSW 5.8 mph - N/A   Clear
9:35 AM 30.2 °F 24.3 °F 29.1 °F 96% 30.29 in 10.0 mi SSW 5.8 mph - N/A   Clear
9:55 AM 31.6 °F 27.0 °F 28.9 °F 90% 30.29 in 10.0 mi SSW 4.6 mph - N/A   Clear
10:15 AM 32.5 °F 28.1 °F 28.4 °F 85% 30.29 in 10.0 mi SSW 4.6 mph - N/A   Clear
10:35 AM 34.3 °F 30.2 °F 28.9 °F 81% 30.28 in 10.0 mi SSW 4.6 mph - N/A   Clear
10:55 AM 34.7 °F 28.1 °F 28.4 °F 78% 30.27 in 10.0 mi SSW 8.1 mph - N/A   Clear
11:15 AM 35.1 °F 28.6 °F 28.4 °F 77% 30.26 in 10.0 mi SSW 8.1 mph - N/A   Clear
11:35 AM 35.6 °F 28.6 °F 28.4 °F 75% 30.26 in 10.0 mi SSW 9.2 mph - N/A   Clear
11:55 AM 36.5 °F 30.3 °F 28.4 °F 72% 30.25 in 10.0 mi SSW 8.1 mph - N/A   Clear
12:15 PM 36.9 °F 30.1 °F 28.4 °F 71% 30.24 in 10.0 mi SSW 9.2 mph - N/A   Clear
12:35 PM 37.8 °F 31.3 °F 28.8 °F 70% 30.23 in 10.0 mi SSW 9.2 mph - N/A   Clear
12:55 PM 38.3 °F 31.9 °F 28.9 °F 69% 30.22 in 10.0 mi SSW 9.2 mph - N/A   Clear
1:15 PM 39.6 °F 33.5 °F 30.0 °F 69% 30.21 in 10.0 mi SW 9.2 mph - N/A   Clear
1:35 PM 39.6 °F 33.0 °F 30.2 °F 69% 30.20 in 10.0 mi SW 10.4 mph - N/A   Clear
1:55 PM 40.1 °F 33.6 °F 30.2 °F 68% 30.20 in 10.0 mi SW 10.4 mph - N/A   Clear
2:15 PM 40.5 °F 34.1 °F 30.2 °F 67% 30.19 in 10.0 mi SW 10.4 mph - N/A   Clear
2:35 PM 40.8 °F 34.5 °F 30.4 °F 66% 30.19 in 10.0 mi SW 10.4 mph - N/A   Clear
2:55 PM 41.0 °F 35.2 °F 30.4 °F 66% 30.18 in 10.0 mi SW 9.2 mph - N/A   Clear
3:15 PM 41.0 °F 35.2 °F 30.6 °F 66% 30.18 in 10.0 mi SSW 9.2 mph - N/A   Clear
3:35 PM 41.0 °F 35.8 °F 30.9 °F 67% 30.17 in 10.0 mi SSW 8.1 mph - N/A   Clear
3:55 PM 40.5 °F 34.1 °F 30.9 °F 69% 30.17 in 10.0 mi SSW 10.4 mph - N/A   Clear
4:15 PM 39.7 °F 33.2 °F 30.6 °F 70% 30.17 in 10.0 mi SSW 10.4 mph - N/A   Clear
4:35 PM 39.6 °F 33.0 °F 30.9 °F 71% 30.16 in 10.0 mi SSW 10.4 mph - N/A   Clear
4:55 PM 38.5 °F 31.6 °F 30.2 °F 72% 30.16 in 10.0 mi SSW 10.4 mph - N/A   Clear
5:15 PM 38.3 °F 31.4 °F 30.2 °F 73% 30.16 in 10.0 mi SSW 10.4 mph - N/A   Clear
5:35 PM 38.3 °F 30.9 °F 30.9 °F 75% 30.15 in 10.0 mi SSW 11.5 mph - N/A   Clear
5:55 PM 39.6 °F 32.5 °F 32.0 °F 74% 30.14 in 10.0 mi SSW 11.5 mph - N/A   Clear
6:15 PM 39.6 °F 31.7 °F 32.0 °F 74% 30.14 in 10.0 mi SSW 13.8 mph - N/A   Clear
6:35 PM 38.5 °F 31.1 °F 31.8 °F 77% 30.14 in 10.0 mi SSW 11.5 mph - N/A   Clear
6:55 PM 38.3 °F 30.1 °F 31.8 °F 77% 30.13 in 10.0 mi SSW 13.8 mph - N/A   Clear
7:15 PM 38.3 °F 30.1 °F 31.8 °F 77% 30.13 in 10.0 mi SSW 13.8 mph - N/A   Clear
7:35 PM 39.6 °F 31.3 °F 32.2 °F 75% 30.13 in 10.0 mi SSW 15.0 mph - N/A   Clear
7:55 PM 39.6 °F 31.7 °F 32.2 °F 75% 30.12 in 10.0 mi SSW 13.8 mph - N/A   Clear
8:15 PM 39.7 °F 31.9 °F 32.0 °F 74% 30.13 in 10.0 mi SW 13.8 mph 19.6 mph N/A   Clear
8:35 PM 40.8 °F 32.0 °F 32.0 °F 71% 30.13 in 10.0 mi SW 18.4 mph 25.3 mph N/A   Clear
8:55 PM 40.3 °F 31.0 °F 32.0 °F 72% 30.12 in 10.0 mi SW 19.6 mph - N/A   Clear
9:15 PM 40.6 °F 31.4 °F 32.0 °F 71% 30.12 in 10.0 mi SW 19.6 mph - N/A   Clear
9:35 PM 41.0 °F 31.9 °F 31.8 °F 70% 30.12 in 10.0 mi SW 19.6 mph 26.5 mph N/A   Clear
9:55 PM 41.0 °F 31.9 °F 31.6 °F 69% 30.12 in 10.0 mi SW 19.6 mph 24.2 mph N/A   Clear
10:15 PM 41.0 °F 32.2 °F 31.6 °F 69% 30.12 in 10.0 mi WSW 18.4 mph 23.0 mph N/A   Clear
10:35 PM 41.0 °F 31.6 °F 31.6 °F 69% 30.11 in 10.0 mi SW 20.7 mph 26.5 mph N/A   Clear
10:55 PM 41.0 °F 32.5 °F 31.6 °F 69% 30.11 in 10.0 mi WSW 17.3 mph 25.3 mph N/A   Clear
11:15 PM 40.3 °F 31.6 °F 31.6 °F 71% 30.11 in 10.0 mi WSW 17.3 mph 20.7 mph N/A   Clear
11:35 PM 39.7 °F 31.2 °F 31.6 °F 73% 30.11 in 10.0 mi WSW 16.1 mph 23.0 mph N/A   Clear
11:55 PM 39.6 °F 31.7 °F 31.8 °F 74% 30.11 in 10.0 mi WSW 13.8 mph - N/A   Clear